[[{"header":{"parameterUnit":"m.s-1","parameterCategory":2,"la1":30.2991,"la2":30.254,"lo1":-89.0895,"lo2":-89.0444,"dy":0.0017,"dx":0.0017,"nx":28,"ny":28,"refTime":"2025-01-25T09:00:00:Z","depth":"0","parameterNumber":2,"parameterNumberName":"U-component_of_CURRENTS"},"data":[0,0,0,0,0,0,0,0,0,0,0,0,0,0,0,0,0,0,0,0,0,0,0,0,0,0,0,0,0,0,0,0,0,0,0,0,0,0,0,0,0,0,0,0,0,0,0,0,0,0,0,0,0,0,0,0,0,0,0.3393,0.3394,0,0.3458,0.3459,0.3459,0.3435,0.3434,0.3433,0.3432,0.3458,0.3459,0.3461,0,0,0,0,0,0,0,0,0,0,0,0,0,0.3261,0.3263,0.3393,0.3394,0.3396,0.3458,0.3459,0.3459,0.3435,0.3434,0.3432,0.3431,0.3457,0.3459,0.3461,0,0,0,0,0,0,0,0,0,0,0,0,0,0.3316,0.3263,0.3393,0.3395,0.3396,0.3458,0.3459,0.3459,0.3435,0.3434,0.3432,0.3431,0.3456,0.3459,0.3461,0.3507,0,0,0.3469,0.347,0,0,0,0,0,0,0,0,0.3313,0.3321,0.3393,0.3395,0.3396,0.3441,0.3422,0.3475,0.3436,0.3415,0.3432,0.343,0.3453,0.3456,0.3465,0.3508,0.3509,0.3469,0.347,0.3471,0.3472,0,0,0,0,0,0,0,0.3309,0.3318,0.3414,0.3395,0.3397,0.3397,0.3403,0.3432,0.3437,0.3417,0.3416,0.3432,0.3452,0.3462,0.3465,0.351,0.3469,0.3471,0.3473,0.3474,0.3626,0.3628,0,0,0,0,0,0,0.3313,0.3315,0.3412,0.3416,0.3356,0.3401,0.3407,0.3424,0.3438,0.344,0.3433,0.3431,0.3459,0.3462,0.3466,0.355,0.3471,0.3474,0.3475,0.3623,0.3626,0.3629,0,0,0,0,0,0,0.331,0.3321,0.3409,0.337,0.3382,0.3406,0.3425,0.3427,0.3439,0.3452,0.3452,0.3445,0.3458,0.3462,0.3507,0.3549,0.3475,0.3477,0.362,0.3624,0.3628,0.3699,0,0,0,0,0,0,0.3306,0.332,0.3335,0.3371,0.3385,0.3464,0.3427,0.3429,0.3454,0.3451,0.3462,0.3463,0.3457,0.3504,0.351,0.3551,0.3479,0.3617,0.3622,0.3626,0.3693,0.3705,0.3715,0,0,0,0,0,0.3301,0.3336,0.3335,0.3347,0.3404,0.3467,0.3474,0.3481,0.3456,0.3481,0.3485,0.3462,0.3538,0.3508,0.3514,0.3557,0.3614,0.362,0.3626,0.3689,0.3703,0.3714,0,0,0,0,0,0,0.3288,0.3338,0.3338,0.3385,0.3429,0.3465,0.3492,0.3491,0.3513,0.3504,0.3496,0.3499,0.356,0.3553,0.352,0.3618,0.3573,0.3581,0.3619,0.3632,0.3642,0.3651,0.3481,0,0,0,0,0,0.3293,0.333,0.3377,0.3417,0.344,0.3464,0.3489,0.3496,0.3522,0.3529,0.3537,0.3552,0.3592,0.3604,0.3637,0.3686,0.3723,0.3719,0.373,0.3739,0.3753,0.3849,0.3869,0.3648,0.3648,0.3648,0,0,0.33,0.3333,0.3353,0.3416,0.3445,0.3495,0.3474,0.3523,0.3558,0.3531,0.3577,0.3597,0.3617,0.3678,0.3703,0.3672,0.3828,0.3746,0.3753,0.3763,0.3857,0.3878,0.3898,0.3652,0.3651,0.365,0,0,0.3339,0.3362,0.3406,0.3449,0.3505,0.3524,0.3541,0.3585,0.3599,0.3653,0.3648,0.3695,0.3736,0.3768,0.3787,0.3879,0.389,0.3883,0.3933,0.4026,0.4045,0.4062,0.4163,0.4188,0.3877,0.3877,0.3877,0,0.3345,0.3398,0.3431,0.3487,0.3521,0.3539,0.359,0.3623,0.3673,0.3703,0.3677,0.3777,0.3786,0.3876,0.3901,0.3904,0.3957,0.3878,0.4041,0.4058,0.4074,0.4173,0.42,0.3881,0.3881,0.388,0.388,0,0.3415,0.3458,0.3492,0.3559,0.3605,0.3654,0.3704,0.3746,0.3755,0.3788,0.3878,0.3901,0.3959,0.3972,0.3959,0.408,0.4084,0.4051,0.4005,0.4101,0.4199,0.4226,0.3887,0.3886,0.3884,0.3883,0,0,0.3422,0.3518,0.3528,0.3558,0.364,0.368,0.3758,0.3835,0.3888,0.3937,0.4017,0.4081,0.4092,0.4115,0.4117,0.4182,0.4341,0.4159,0.4162,0.4254,0.4566,0.4455,0.4473,0.4333,0.4338,0.4341,0.4597,0,0.346,0.3548,0.3595,0.3673,0.3717,0.3768,0.3838,0.3913,0.3969,0.4055,0.4107,0.4183,0.4148,0.4176,0.4246,0.4323,0.4411,0.4276,0.4464,0.447,0.4354,0.4499,0.4199,0.4391,0.4623,0.4628,0.4631,0,0.3503,0.3555,0.3625,0.3714,0.374,0.3789,0.3893,0.3962,0.4096,0.4147,0.4239,0.4283,0.4408,0.4344,0.455,0.4466,0.453,0.4577,0.4587,0.4473,0.4407,0.4329,0.4431,0.4279,0.4672,0.4669,0.4666,0,0.3466,0.3572,0.3612,0.3645,0.3755,0.3797,0.3857,0.3984,0.4068,0.4207,0.4292,0.4425,0.4512,0.4617,0.4716,0.4651,0.4939,0.4861,0.4833,0.4827,0.4603,0.4567,0.4568,0.5019,0.5018,0.5018,0.5017,0,0.3474,0.351,0.3591,0.3617,0.3685,0.3769,0.3868,0.3951,0.4105,0.4229,0.4327,0.4457,0.4583,0.4747,0.4805,0.4924,0.5027,0.4888,0.4896,0.462,0.4585,0.4463,0.4419,0.5027,0.5025,0.5023,0.5022,0,0.3426,0.3477,0.3532,0.3632,0.3665,0.3709,0.387,0.3957,0.4096,0.4267,0.4322,0.454,0.4736,0.4866,0.5067,0.5039,0.4997,0.5163,0.4833,0.4795,0.454,0.4511,0.4466,0.4339,0.5165,0.5164,0.5163,0,0.3405,0.3424,0.3519,0.3561,0.3603,0.3693,0.3773,0.3926,0.4037,0.4319,0.4406,0.4646,0.4798,0.5056,0.5031,0.5131,0.5006,0.4913,0.4708,0.4524,0.4501,0.4372,0.4258,0.4469,0.4463,0.4457,0.4453,0,0.338,0.3404,0.3461,0.3542,0.3609,0.3694,0.3818,0.3899,0.4102,0.4252,0.4476,0.4618,0.481,0.4756,0.485,0.4864,0.4616,0.4803,0.4699,0.4039,0.3815,0.3693,0.433,0.4405,0.441,0.4414,0.4416,0.4418,0.3366,0.3402,0.3484,0.3556,0.3618,0.3688,0.373,0.3873,0.4021,0.4182,0.4394,0.4463,0.4471,0.4523,0.4536,0.4251,0.4318,0.4045,0.4064,0.3981,0.3713,0.4251,0.4265,0.4268,0.4272,0.4275,0.4277,0,0.3395,0.3456,0.3512,0.3592,0.3613,0.3661,0.3764,0.3777,0.3886,0.3986,0.412,0.4007,0.3931,0.3907,0.3676,0.3507,0.3364,0.3411,0.3137,0.3092,0.3636,0.3451,0.3179,0.3179,0.3179,0.318,0.318,0.318,0.3435,0.3503,0.3535,0.3579,0.3602,0.3585,0.3603,0.3609,0.3631,0.354,0.34,0.3397,0.341,0.3313,0.3068,0.2987,0.278,0.2613,0.2727,0.306,0.3118,0.3174,0.2987,0.2623,0.2622,0.1957,0.1952,0.1948]},{"header":{"parameterUnit":"m.s-1","parameterCategory":2,"la1":30.2991,"la2":30.254,"lo1":-89.0895,"lo2":-89.0444,"dy":0.0017,"dx":0.0017,"nx":28,"ny":28,"refTime":"2025-01-25T09:00:00:Z","depth":"0","parameterNumber":3,"parameterNumberName":"V-component_of_CURRENTS"},"data":[0,0,0,0,0,0,0,0,0,0,0,0,0,0,0,0,0,0,0,0,0,0,0,0,0,0,0,0,0,0,0,0,0,0,0,0,0,0,0,0,0,0,0,0,0,0,0,0,0,0,0,0,0,0,0,0,0,0,-0.008,-0.0081,0,-0.0116,-0.0116,-0.0116,-0.0147,-0.0147,-0.0148,-0.0148,-0.0215,-0.0216,-0.0218,0,0,0,0,0,0,0,0,0,0,0,0,0,-0.0059,-0.006,-0.008,-0.0081,-0.0081,-0.0116,-0.0116,-0.0117,-0.0147,-0.0147,-0.0148,-0.0148,-0.0214,-0.0216,-0.0218,0,0,0,0,0,0,0,0,0,0,0,0,0,-0.0079,-0.006,-0.008,-0.01,-0.0102,-0.0115,-0.0116,-0.0117,-0.0147,-0.0147,-0.0148,-0.0148,-0.0214,-0.0216,-0.0218,-0.0222,0,0,-0.0225,-0.0226,0,0,0,0,0,0,0,0,-0.0078,-0.008,-0.0097,-0.0099,-0.0101,-0.0127,-0.0133,-0.0153,-0.0147,-0.013,-0.0148,-0.0149,-0.0188,-0.0192,-0.0198,-0.0225,-0.0228,-0.0225,-0.0226,-0.0227,-0.0228,0,0,0,0,0,0,0,-0.0077,-0.0079,-0.0095,-0.0097,-0.01,-0.0115,-0.0118,-0.0137,-0.0157,-0.0132,-0.0134,-0.0137,-0.019,-0.0196,-0.02,-0.0229,-0.0225,-0.0227,-0.0228,-0.0229,-0.0256,-0.0255,0,0,0,0,0,0,-0.007,-0.0077,-0.0093,-0.0096,-0.009,-0.0114,-0.0118,-0.0119,-0.0156,-0.0162,-0.0137,-0.0139,-0.0191,-0.0197,-0.0202,-0.0189,-0.0227,-0.0229,-0.0231,-0.0257,-0.0256,-0.0255,0,0,0,0,0,0,-0.0069,-0.0071,-0.0092,-0.0087,-0.0091,-0.0114,-0.0115,-0.0119,-0.0125,-0.0159,-0.0166,-0.0139,-0.0192,-0.0199,-0.021,-0.0192,-0.023,-0.0232,-0.0257,-0.0256,-0.0256,-0.0175,0,0,0,0,0,0,-0.0069,-0.007,-0.0068,-0.0087,-0.0091,-0.0088,-0.0114,-0.0119,-0.0126,-0.0129,-0.0163,-0.017,-0.0193,-0.0206,-0.0212,-0.0196,-0.0234,-0.0258,-0.0257,-0.0256,-0.0178,-0.0171,-0.0165,0,0,0,0,0,-0.0068,-0.0057,-0.0067,-0.0069,-0.0087,-0.0087,-0.009,-0.0109,-0.0126,-0.0118,-0.0143,-0.0169,-0.0203,-0.0207,-0.0214,-0.0199,-0.0259,-0.0257,-0.0256,-0.0181,-0.0173,-0.0165,0,0,0,0,0,0,-0.0047,-0.006,-0.0071,-0.0066,-0.0072,-0.0092,-0.009,-0.0104,-0.0118,-0.0124,-0.016,-0.0167,-0.0172,-0.0197,-0.0201,-0.0204,-0.0236,-0.0236,-0.0177,-0.0169,-0.0163,-0.0138,-0.0236,0,0,0,0,0,-0.004,-0.0038,-0.0051,-0.0047,-0.0049,-0.007,-0.0074,-0.0084,-0.01,-0.0107,-0.0131,-0.0156,-0.0171,-0.0179,-0.02,-0.0199,-0.0201,-0.0195,-0.0188,-0.0183,-0.0168,-0.0165,-0.0156,-0.0251,-0.0251,-0.0251,0,0,-0.0033,-0.0039,-0.0039,-0.0042,-0.0052,-0.0039,-0.0073,-0.0072,-0.0058,-0.0112,-0.0105,-0.0136,-0.0168,-0.0166,-0.017,-0.0184,-0.0152,-0.0181,-0.0175,-0.0163,-0.0162,-0.0153,-0.0144,-0.025,-0.025,-0.025,0,0,-0.0006,-0.002,-0.0004,-0.0003,-0.0008,-0.0018,-0.0015,-0.003,-0.0033,-0.0033,-0.0066,-0.008,-0.011,-0.0119,-0.013,-0.01,-0.012,-0.0115,-0.0057,-0.0054,-0.0046,-0.0039,-0.0004,0.0006,-0.0108,-0.0108,-0.0107,0,0.0005,0.0026,0.0002,0.0022,0.0031,-0.0003,0.0024,0.0018,0.0003,0.0013,-0.0021,-0.0048,-0.0083,-0.0065,-0.0059,-0.0083,-0.0077,-0.0082,-0.0043,-0.0037,-0.0031,0.0003,0.0013,-0.0104,-0.0104,-0.0104,-0.0105,0,0.0051,0.0066,0.0077,0.0092,0.0096,0.0114,0.0105,0.0111,0.0092,0.0087,0.0092,0.0045,0.0032,0.0016,-0.0016,0.0013,0.0007,-0.0036,-0.0058,-0.0016,0.0017,0.0025,-0.0098,-0.0099,-0.01,-0.0101,0,0,0.0081,0.0107,0.0111,0.0138,0.0138,0.0154,0.0175,0.0198,0.0227,0.0195,0.0232,0.0188,0.0156,0.0141,0.0099,0.0098,0.0141,0.0052,0.0051,0.0098,0.0177,0.017,0.0178,0.0102,0.0103,0.0104,0.0193,0,0.0129,0.019,0.0184,0.0242,0.0274,0.0258,0.0286,0.0299,0.0294,0.0319,0.0279,0.0286,0.0207,0.0202,0.0186,0.0152,0.0163,0.0123,0.012,0.0121,0.0117,0.0187,0.0156,0.0231,0.0201,0.0202,0.0203,0,0.0183,0.0219,0.0285,0.0335,0.0348,0.0371,0.0419,0.0442,0.0459,0.0457,0.0448,0.0412,0.041,0.0324,0.0306,0.0283,0.0241,0.021,0.0211,0.0182,0.0128,0.0177,0.0247,0.0063,0.0216,0.0215,0.0214,0,0.0235,0.0293,0.0352,0.0368,0.0412,0.044,0.0462,0.0486,0.0527,0.0549,0.0579,0.055,0.0555,0.0489,0.0415,0.0363,0.0404,0.032,0.0285,0.0285,0.0248,0.0242,0.0147,0.0315,0.0315,0.0315,0.0314,0,0.0294,0.0345,0.0383,0.0418,0.0495,0.05,0.0576,0.0594,0.0634,0.0716,0.0652,0.0718,0.0592,0.059,0.0489,0.0441,0.0466,0.0326,0.0311,0.0277,0.0273,0.0099,-0.0008,0.0318,0.0317,0.0317,0.0316,0,0.0342,0.0366,0.0442,0.05,0.0521,0.0576,0.0648,0.0707,0.0735,0.0839,0.0856,0.0866,0.0886,0.0777,0.0709,0.0563,0.0404,0.0472,0.046,0.0441,0.0189,0.0089,0.001,-0.0054,0.0438,0.0438,0.0438,0,0.0374,0.0415,0.0499,0.0548,0.0575,0.0651,0.0707,0.075,0.0823,0.0954,0.1022,0.1071,0.1169,0.107,0.0831,0.0691,0.0493,0.0506,0.0377,0.0201,0.0078,-0.0002,-0.0057,0.0376,0.0376,0.0375,0.0375,0,0.0432,0.0455,0.0517,0.0612,0.068,0.0771,0.0859,0.0933,0.102,0.1154,0.135,0.1455,0.1365,0.1224,0.097,0.0819,0.0354,0.0496,0.0307,0.0029,-0.0057,-0.0134,0.0311,0.0374,0.0374,0.0374,0.0374,0.0374,0.047,0.0518,0.0587,0.0681,0.0768,0.0882,0.0979,0.1118,0.1297,0.1556,0.1623,0.1865,0.1529,0.1206,0.0953,0.0376,0.0395,0.0171,0.0076,0.0021,-0.0087,0.0375,0.041,0.0411,0.0411,0.0411,0.0411,0,0.0515,0.0562,0.0649,0.0765,0.0875,0.0911,0.1077,0.1218,0.1481,0.1795,0.2043,0.2028,0.1635,0.1152,0.0373,-0.0003,-0.0155,-0.0209,-0.0362,-0.0389,0.0018,-0.0036,-0.0089,-0.0089,-0.0089,-0.0088,-0.0088,-0.0088,0.0535,0.0615,0.0654,0.0825,0.0921,0.1087,0.1197,0.1445,0.1695,0.2109,0.2313,0.2446,0.1981,0.0637,-0.0247,-0.043,-0.0706,-0.0756,-0.0847,-0.0631,-0.0605,-0.058,-0.0657,-0.084,-0.0841,-0.1233,-0.1238,-0.1241]}],[{"header":{"parameterUnit":"m.s-1","parameterCategory":2,"la1":30.2991,"la2":30.254,"lo1":-89.0895,"lo2":-89.0444,"dy":0.0017,"dx":0.0017,"nx":28,"ny":28,"refTime":"2025-01-25T09:00:00:Z","depth":"2","parameterNumber":2,"parameterNumberName":"U-component_of_CURRENTS"},"data":[0,0,0,0,0,0,0,0,0,0,0,0,0,0,0,0,0,0,0,0,0,0,0,0,0,0,0,0,0,0,0,0,0,0,0,0,0,0,0,0,0,0,0,0,0,0,0,0,0,0,0,0,0,0,0,0,0,0,0.2577,0.2578,0,0.2608,0.2608,0.2608,0.2607,0.2607,0.2607,0.2607,0.2624,0.2625,0.2625,0,0,0,0,0,0,0,0,0,0,0,0,0,0.2534,0.2534,0.2577,0.2578,0.2579,0.2608,0.2608,0.2608,0.2607,0.2607,0.2607,0.2607,0.2624,0.2625,0.2626,0,0,0,0,0,0,0,0,0,0,0,0,0,0.2555,0.2535,0.2577,0.2584,0.2585,0.2608,0.2608,0.2608,0.2607,0.2607,0.2607,0.2607,0.2624,0.2625,0.2626,0.2637,0,0,0.2629,0.2629,0,0,0,0,0,0,0,0,0.2554,0.2556,0.2582,0.2583,0.2585,0.2606,0.2599,0.2618,0.2607,0.2596,0.2607,0.2606,0.2619,0.262,0.2623,0.2638,0.2638,0.2629,0.2629,0.263,0.263,0,0,0,0,0,0,0,0.2552,0.2555,0.2587,0.2583,0.2584,0.259,0.2593,0.2603,0.2606,0.2597,0.2598,0.2605,0.2619,0.2622,0.2623,0.2639,0.2629,0.2629,0.263,0.263,0.2717,0.2719,0,0,0,0,0,0,0.2553,0.2554,0.2586,0.2588,0.2571,0.2591,0.2594,0.2597,0.2606,0.2609,0.2605,0.2605,0.262,0.2622,0.2624,0.2689,0.263,0.263,0.2631,0.2716,0.2718,0.272,0,0,0,0,0,0,0.2552,0.2556,0.2585,0.2574,0.2578,0.2593,0.2596,0.2598,0.2615,0.2613,0.2615,0.2622,0.262,0.2623,0.2649,0.2688,0.2631,0.2632,0.2714,0.2716,0.2719,0.2786,0,0,0,0,0,0,0.2551,0.2555,0.2563,0.2574,0.2579,0.2612,0.2597,0.2599,0.262,0.262,0.2628,0.2629,0.262,0.2648,0.265,0.2688,0.2632,0.2711,0.2715,0.2718,0.2782,0.2791,0.2799,0,0,0,0,0,0.2549,0.256,0.2563,0.2567,0.2587,0.2614,0.2617,0.2624,0.2621,0.2637,0.2642,0.2629,0.2671,0.265,0.2652,0.2691,0.271,0.2714,0.2718,0.2778,0.2789,0.2798,0,0,0,0,0,0,0.2546,0.2562,0.2565,0.258,0.2603,0.2615,0.2632,0.2636,0.2652,0.2656,0.2647,0.2649,0.269,0.2681,0.2659,0.2727,0.269,0.2695,0.2736,0.2746,0.2754,0.2749,0.2633,0,0,0,0,0,0.255,0.2562,0.2581,0.2596,0.261,0.2624,0.2637,0.2646,0.266,0.2667,0.2673,0.2685,0.2706,0.2717,0.2731,0.2764,0.2779,0.2793,0.2801,0.2808,0.2807,0.2862,0.2876,0.2732,0.2732,0.2732,0,0,0.2551,0.2565,0.257,0.2597,0.2614,0.2637,0.2631,0.2662,0.2685,0.2667,0.2703,0.2716,0.2723,0.2763,0.2781,0.2761,0.2863,0.2813,0.2819,0.2814,0.2868,0.2882,0.2894,0.2735,0.2735,0.2734,0,0,0.2563,0.2577,0.2591,0.2614,0.2649,0.266,0.2674,0.27,0.2717,0.2752,0.2753,0.2787,0.2809,0.2828,0.2838,0.2901,0.2907,0.2912,0.2949,0.3004,0.3016,0.3027,0.3089,0.3104,0.2914,0.2915,0.2915,0,0.2567,0.2583,0.2602,0.2627,0.2648,0.2673,0.2697,0.2723,0.2756,0.2782,0.2772,0.2837,0.284,0.2899,0.2919,0.292,0.2954,0.291,0.3015,0.3026,0.3036,0.3096,0.3112,0.2918,0.2918,0.2918,0.2917,0,0.2589,0.2607,0.2623,0.2657,0.2684,0.2714,0.2751,0.2788,0.2811,0.2836,0.2904,0.2918,0.2958,0.2971,0.296,0.304,0.3044,0.3022,0.2988,0.3054,0.3114,0.313,0.2924,0.2922,0.2921,0.292,0,0,0.2578,0.2626,0.2631,0.2644,0.2703,0.2719,0.2781,0.2837,0.2876,0.2925,0.2983,0.3026,0.3048,0.3061,0.307,0.3107,0.3209,0.3095,0.3096,0.3154,0.3349,0.3245,0.3253,0.321,0.3213,0.3215,0.3372,0,0.2589,0.2624,0.2653,0.2687,0.2705,0.2757,0.2806,0.2866,0.2917,0.2984,0.3037,0.3093,0.3082,0.311,0.3155,0.319,0.325,0.317,0.3277,0.328,0.3178,0.3266,0.2985,0.309,0.3387,0.3389,0.3391,0,0.2592,0.2615,0.2647,0.2691,0.2706,0.2739,0.2819,0.2871,0.2982,0.3029,0.3113,0.3155,0.3244,0.3211,0.3335,0.3288,0.3331,0.3351,0.3358,0.3242,0.3205,0.3068,0.3107,0.3417,0.3415,0.3413,0.3412,0,0.2553,0.2602,0.262,0.2639,0.2705,0.274,0.2789,0.2889,0.2958,0.3073,0.3138,0.3237,0.3316,0.3371,0.3434,0.3398,0.3558,0.3513,0.3472,0.3466,0.3234,0.3201,0.3611,0.3611,0.361,0.361,0.361,0,0.254,0.2549,0.2603,0.2614,0.2654,0.2713,0.2785,0.2853,0.2983,0.307,0.3165,0.3257,0.3361,0.3464,0.3485,0.3537,0.3617,0.3497,0.3501,0.3251,0.322,0.3493,0.3477,0.3616,0.3615,0.3613,0.3612,0,0.2485,0.2523,0.2542,0.2608,0.2635,0.2665,0.2794,0.2846,0.2975,0.3098,0.3148,0.3328,0.344,0.3528,0.3641,0.3612,0.3651,0.3654,0.3358,0.3321,0.3513,0.35,0.3617,0.3614,0.3612,0.3611,0.3609,0,0.2459,0.2463,0.2524,0.2542,0.2574,0.2642,0.2692,0.2832,0.2902,0.3126,0.3179,0.3361,0.3434,0.3573,0.3562,0.3594,0.3666,0.3348,0.3203,0.3523,0.3516,0.3505,0.3494,0.2948,0.2941,0.2936,0.2931,0,0.2408,0.2429,0.2448,0.2488,0.2532,0.2572,0.2661,0.2723,0.2888,0.2988,0.3116,0.3197,0.3355,0.326,0.333,0.3302,0.3302,0.3235,0.3675,0.2971,0.2899,0.289,0.29,0.2882,0.2887,0.2891,0.2894,0.2896,0.2365,0.2375,0.2403,0.2425,0.2467,0.2475,0.246,0.2561,0.2643,0.2757,0.2937,0.2963,0.3037,0.2979,0.2906,0.2857,0.3073,0.2919,0.2933,0.2954,0.2829,0.2755,0.2691,0.2695,0.2698,0.27,0.2703,0,0.2306,0.2326,0.2341,0.2354,0.233,0.2395,0.2407,0.2358,0.237,0.2541,0.261,0.2443,0.2416,0.2494,0.234,0.2336,0.2294,0.2237,0.2152,0.2203,0.2248,0.2084,0.1751,0.1748,0.1745,0.1742,0,0,0.2284,0.2258,0.2259,0.2195,0.2217,0.2128,0.2092,0.2033,0.2067,0.2071,0.2102,0.2327,0.2425,0.2063,0.2015,0.1853,0.201,0.178,0.2549,0.2502,0.2542,0.2653,0.246,0,0,0,0,0]},{"header":{"parameterUnit":"m.s-1","parameterCategory":2,"la1":30.2991,"la2":30.254,"lo1":-89.0895,"lo2":-89.0444,"dy":0.0017,"dx":0.0017,"nx":28,"ny":28,"refTime":"2025-01-25T09:00:00:Z","depth":"2","parameterNumber":3,"parameterNumberName":"V-component_of_CURRENTS"},"data":[0,0,0,0,0,0,0,0,0,0,0,0,0,0,0,0,0,0,0,0,0,0,0,0,0,0,0,0,0,0,0,0,0,0,0,0,0,0,0,0,0,0,0,0,0,0,0,0,0,0,0,0,0,0,0,0,0,0,0.0083,0.0083,0,0.006,0.0059,0.0059,0.0029,0.0028,0.0028,0.0028,-0.0016,-0.0017,-0.0018,0,0,0,0,0,0,0,0,0,0,0,0,0,0.0072,0.0073,0.0083,0.0083,0.0083,0.006,0.0059,0.0059,0.0029,0.0028,0.0028,0.0027,-0.0016,-0.0017,-0.0018,0,0,0,0,0,0,0,0,0,0,0,0,0,0.0066,0.0073,0.0083,0.0065,0.0063,0.006,0.0059,0.0059,0.0029,0.0028,0.0028,0.0027,-0.0016,-0.0017,-0.0018,-0.0011,0,0,-0.0021,-0.0022,0,0,0,0,0,0,0,0,0.0066,0.0066,0.0068,0.0066,0.0064,0.0047,0.0039,0.0035,0.0029,0.0042,0.0028,0.0027,0.0003,0.0001,-0.0002,-0.0013,-0.0015,-0.0022,-0.0022,-0.0023,-0.0023,0,0,0,0,0,0,0,0.0067,0.0067,0.0074,0.0068,0.0066,0.0048,0.0046,0.0038,0.0026,0.0041,0.0039,0.0037,0.0002,-0.0001,-0.0004,-0.0016,-0.0022,-0.0023,-0.0023,-0.0024,-0.0031,-0.003,0,0,0,0,0,0,0.0073,0.0067,0.0074,0.0073,0.0064,0.0049,0.0047,0.0053,0.0027,0.0022,0.0037,0.0035,0.0001,-0.0002,-0.0005,0.0008,-0.0023,-0.0024,-0.0024,-0.0031,-0.0031,-0.003,0,0,0,0,0,0,0.0073,0.0074,0.0075,0.0069,0.0068,0.005,0.0057,0.0053,0.0047,0.0024,0.0019,0.0035,0.0001,-0.0004,-0.0009,0.0006,-0.0024,-0.0025,-0.0032,-0.0031,-0.003,0.0031,0,0,0,0,0,0,0.0072,0.0074,0.0079,0.007,0.0069,0.0084,0.0057,0.0053,0.0047,0.0044,0.0021,0.0016,-0.0,-0.0008,-0.0011,0.0004,-0.0026,-0.0032,-0.0032,-0.0031,0.0028,0.0033,0.0038,0,0,0,0,0,0.0072,0.0091,0.008,0.0081,0.0077,0.0085,0.0083,0.0066,0.0048,0.0056,0.0035,0.0017,-0.0004,-0.0008,-0.0012,0.0003,-0.0033,-0.0032,-0.0031,0.0026,0.0032,0.0038,0,0,0,0,0,0,0.0091,0.009,0.0077,0.0094,0.0091,0.008,0.0085,0.007,0.0059,0.0053,0.0025,0.002,0.0018,0.0002,-0.0001,0.0002,-0.0022,-0.0022,0.0022,0.0028,0.0033,0.005,-0.0027,0,0,0,0,0,0.0097,0.0109,0.0102,0.0114,0.0115,0.0098,0.0096,0.0086,0.0075,0.0069,0.0052,0.0032,0.0021,0.0018,0.0004,0.0011,-0.0013,0.0016,0.0021,0.0025,0.0037,0.0007,0.001,-0.0027,-0.0027,-0.0027,0,0,0.0106,0.0107,0.0113,0.0118,0.0112,0.0129,0.0096,0.0101,0.0113,0.0067,0.0075,0.0048,0.0025,0.003,0.0028,0.0019,0.0024,0.0027,0.0031,0.004,0.0008,0.0012,0.0015,-0.0026,-0.0026,-0.0026,0,0,0.014,0.0133,0.0156,0.016,0.0158,0.015,0.0153,0.0144,0.0139,0.0141,0.0109,0.0093,0.0078,0.0067,0.0058,0.0082,0.0048,0.0076,0.0121,0.0092,0.0095,0.0097,0.0076,0.0076,0.0082,0.0082,0.0082,0,0.015,0.0178,0.0164,0.0188,0.0198,0.0164,0.0194,0.0187,0.0176,0.0178,0.0152,0.0123,0.0098,0.0105,0.0111,0.0095,0.0074,0.0102,0.0099,0.0101,0.0102,0.008,0.0079,0.0085,0.0085,0.0085,0.0084,0,0.0204,0.0223,0.0239,0.0258,0.0267,0.0286,0.0277,0.028,0.0259,0.0248,0.0242,0.02,0.0186,0.0171,0.0149,0.0152,0.0133,0.0106,0.0086,0.0109,0.0085,0.0083,0.009,0.0089,0.0088,0.0087,0,0,0.0238,0.0271,0.0276,0.03,0.0306,0.0324,0.0342,0.0356,0.0376,0.0339,0.0359,0.0317,0.0283,0.0271,0.0233,0.0206,0.0191,0.0167,0.0164,0.0151,0.0134,0.0095,0.0088,0.0162,0.0162,0.0162,0.0115,0,0.0284,0.0346,0.0349,0.0405,0.0437,0.0422,0.045,0.0453,0.0441,0.0451,0.0394,0.0392,0.0326,0.0319,0.0281,0.0218,0.0188,0.0207,0.0109,0.0107,0.0072,0.0085,0.0111,0.0069,0.0113,0.0112,0.0112,0,0.0339,0.0374,0.0439,0.049,0.0504,0.053,0.0569,0.0594,0.059,0.0582,0.0553,0.0502,0.0463,0.0397,0.0296,0.0311,0.0231,0.0171,0.0167,0.011,0.0064,0.0051,0.0063,0.0108,0.0108,0.0109,0.0109,0,0.0379,0.0439,0.0494,0.0511,0.0559,0.0588,0.0617,0.0633,0.068,0.0666,0.0685,0.0607,0.0591,0.047,0.0333,0.0316,0.0218,0.0177,0.0066,0.0063,0.0055,0.0051,0.0103,0.0103,0.0103,0.0103,0.0103,0,0.0432,0.0476,0.0519,0.0552,0.0631,0.0645,0.0731,0.0742,0.0787,0.0863,0.0759,0.0789,0.0608,0.0522,0.0374,0.022,0.0245,0.0081,0.0048,0.0077,0.0075,0.0084,0.0082,0.0101,0.0102,0.0102,0.0102,0,0.047,0.0493,0.0565,0.0626,0.0653,0.0714,0.0822,0.0891,0.091,0.1004,0.1006,0.0939,0.0822,0.0627,0.0446,0.0295,0.0134,0.0071,0.0118,0.0091,-0.0012,-0.001,-0.0056,-0.0058,-0.0059,-0.006,-0.0061,0,0.0496,0.0534,0.0622,0.068,0.0712,0.0808,0.0888,0.0948,0.104,0.1109,0.1169,0.1074,0.1024,0.0723,0.0442,0.0169,0.0134,0.0008,-0.0032,-0.0001,-0.0028,-0.0023,-0.0019,-0.0013,-0.0014,-0.0014,-0.0015,0,0.0547,0.0573,0.0637,0.0757,0.0846,0.0963,0.1085,0.1177,0.1272,0.1334,0.1405,0.1359,0.1078,0.0796,0.0409,0.0226,0.0045,-0.0012,0.0018,0.0017,0.0033,0.0008,0.0012,-0.0019,-0.0019,-0.0018,-0.0018,-0.0018,0.0586,0.0643,0.0731,0.0847,0.0959,0.1113,0.1229,0.1357,0.1501,0.1614,0.1572,0.15,0.1182,0.0675,0.0357,0.0019,0.0028,-0.01,-0.0096,-0.0092,-0.0085,-0.0073,-0.0142,-0.0143,-0.0143,-0.0143,-0.0143,0,0.0643,0.0712,0.0822,0.0971,0.1106,0.1159,0.136,0.147,0.1638,0.1707,0.1733,0.1411,0.1089,0.0726,0.0225,-0.008,-0.0091,-0.0177,-0.0121,-0.0115,-0.011,-0.0102,-0.0165,-0.0166,-0.0167,-0.0168,0,0,0.0678,0.0786,0.0843,0.1064,0.1181,0.1382,0.1503,0.1632,0.1717,0.177,0.1725,0.1627,0.1181,0.0815,0.0407,0.0124,0.0077,0.0067,0.0116,0.0236,0.0245,-0.0039,-0.0017,0,0,0,0,0]}],[{"header":{"parameterUnit":"m.s-1","parameterCategory":2,"la1":30.2991,"la2":30.254,"lo1":-89.0895,"lo2":-89.0444,"dy":0.0017,"dx":0.0017,"nx":28,"ny":28,"refTime":"2025-01-25T09:00:00:Z","depth":"4","parameterNumber":2,"parameterNumberName":"U-component_of_CURRENTS"},"data":[0,0,0,0,0,0,0,0,0,0,0,0,0,0,0,0,0,0,0,0,0,0,0,0,0,0,0,0,0,0,0,0,0,0,0,0,0,0,0,0,0,0,0,0,0,0,0,0,0,0,0,0,0,0,0,0,0,0,0.1598,0.1598,0,0.164,0.164,0.164,0.169,0.1691,0.1692,0.1693,0.1753,0.1754,0.1754,0,0,0,0,0,0,0,0,0,0,0,0,0,0.1548,0.1549,0.1598,0.1598,0.1599,0.164,0.164,0.1641,0.169,0.1691,0.1693,0.1694,0.1753,0.1754,0.1755,0,0,0,0,0,0,0,0,0,0,0,0,0,0.1576,0.1549,0.1597,0.163,0.1633,0.164,0.164,0.1641,0.169,0.1691,0.1693,0.1694,0.1753,0.1754,0.1755,0.1734,0,0,0.1758,0.1758,0,0,0,0,0,0,0,0,0.1575,0.1578,0.1625,0.1628,0.1632,0.1663,0.1645,0.1673,0.169,0.1667,0.1693,0.1695,0.1725,0.1728,0.173,0.1736,0.1739,0.1758,0.1759,0.1759,0.176,0,0,0,0,0,0,0,0.1573,0.1576,0.1613,0.1625,0.163,0.1638,0.1644,0.165,0.1686,0.1669,0.1673,0.168,0.1727,0.1729,0.1732,0.174,0.1758,0.1759,0.176,0.176,0.1855,0.1857,0,0,0,0,0,0,0.157,0.1574,0.1611,0.1614,0.1608,0.1638,0.1644,0.165,0.1686,0.1693,0.1679,0.1682,0.1726,0.1731,0.1734,0.1818,0.1759,0.176,0.1761,0.1853,0.1856,0.1858,0,0,0,0,0,0,0.1569,0.1573,0.161,0.1597,0.1602,0.1638,0.1644,0.165,0.169,0.1694,0.1701,0.1717,0.1728,0.1733,0.1778,0.1816,0.1761,0.1762,0.1851,0.1854,0.1857,0.1916,0,0,0,0,0,0,0.1567,0.1572,0.1592,0.1596,0.1603,0.1638,0.1643,0.165,0.1691,0.1697,0.1728,0.1733,0.1729,0.1776,0.1779,0.1817,0.1763,0.1849,0.1852,0.1856,0.1912,0.1921,0.1928,0,0,0,0,0,0.1565,0.1578,0.1592,0.1598,0.1624,0.1639,0.1644,0.1672,0.1692,0.1713,0.1741,0.1734,0.1801,0.1778,0.1781,0.182,0.1847,0.1851,0.1855,0.1908,0.1919,0.1928,0,0,0,0,0,0,0.1568,0.1585,0.1601,0.162,0.1643,0.1649,0.1675,0.1692,0.1729,0.1747,0.1751,0.1758,0.1813,0.1808,0.1784,0.186,0.1825,0.183,0.1865,0.1875,0.1883,0.1892,0.1763,0,0,0,0,0,0.1577,0.1595,0.1611,0.1632,0.1646,0.1668,0.1686,0.1706,0.1729,0.1749,0.1772,0.18,0.1824,0.1845,0.1862,0.1897,0.1901,0.1928,0.1936,0.1943,0.1955,0.199,0.2002,0.1871,0.1871,0.1871,0,0,0.1585,0.1597,0.1609,0.1635,0.1656,0.1678,0.1683,0.172,0.1751,0.1748,0.1811,0.183,0.1841,0.1886,0.1911,0.1893,0.1984,0.1948,0.1954,0.1962,0.1995,0.2008,0.2019,0.1874,0.1874,0.1873,0,0,0.1596,0.1622,0.164,0.166,0.1698,0.171,0.173,0.1761,0.1796,0.1844,0.1857,0.1904,0.1937,0.1958,0.1968,0.2032,0.2025,0.2044,0.2094,0.2128,0.2139,0.2148,0.2171,0.2183,0.2049,0.2049,0.2049,0,0.1611,0.1629,0.165,0.1671,0.1695,0.1729,0.1756,0.1788,0.1836,0.187,0.1878,0.1957,0.197,0.2024,0.2054,0.2051,0.2066,0.2052,0.2138,0.2148,0.2156,0.2178,0.2189,0.2052,0.2052,0.2051,0.2051,0,0.1622,0.1653,0.1667,0.1705,0.1735,0.1765,0.1806,0.1855,0.1901,0.1933,0.2014,0.2037,0.2086,0.21,0.2098,0.2173,0.2163,0.2142,0.211,0.2173,0.2191,0.2202,0.2057,0.2056,0.2055,0.2054,0,0,0.161,0.1665,0.1674,0.1697,0.1758,0.1775,0.1845,0.1907,0.1956,0.2021,0.2085,0.2146,0.2177,0.2192,0.2204,0.2238,0.2315,0.2228,0.2228,0.2245,0.2394,0.2239,0.2235,0.2312,0.2314,0.2316,0.2382,0,0.1618,0.1657,0.1689,0.1738,0.1761,0.1819,0.187,0.1938,0.2004,0.2074,0.2133,0.2197,0.2206,0.224,0.2283,0.2309,0.2347,0.2299,0.2335,0.2336,0.2186,0.2243,0.2323,0.239,0.2393,0.2394,0.2396,0,0.1611,0.1642,0.169,0.175,0.1768,0.1809,0.1902,0.1955,0.2062,0.2118,0.2208,0.2252,0.2343,0.2324,0.242,0.2394,0.241,0.2418,0.242,0.2262,0.2201,0.2315,0.2415,0.2413,0.2412,0.2411,0.2409,0,0.1571,0.1636,0.1677,0.1698,0.1774,0.1822,0.1875,0.1978,0.2036,0.2162,0.222,0.2321,0.2388,0.2433,0.2484,0.2462,0.2565,0.2526,0.24,0.2389,0.2482,0.2471,0.2585,0.2585,0.2585,0.2584,0.2584,0,0.1541,0.1575,0.1666,0.1681,0.1734,0.1805,0.1881,0.195,0.2064,0.2129,0.2248,0.231,0.2424,0.2495,0.2513,0.2497,0.2596,0.242,0.2398,0.2506,0.2497,0.249,0.2478,0.2587,0.2586,0.2586,0.2585,0,0.1479,0.1541,0.1585,0.1679,0.1713,0.1754,0.1873,0.192,0.2046,0.2139,0.2187,0.2339,0.2427,0.251,0.2587,0.252,0.252,0.2488,0.2615,0.2597,0.2314,0.2304,0.2339,0.2334,0.233,0.2327,0.2324,0,0.1445,0.1465,0.1568,0.1594,0.1641,0.172,0.1768,0.19,0.1951,0.2132,0.2157,0.2306,0.2388,0.2385,0.2475,0.2494,0.2464,0.244,0.2359,0.2314,0.2291,0.2288,0.2284,0.2317,0.2316,0.2315,0.2314,0,0.1376,0.1429,0.1461,0.1518,0.1574,0.162,0.1702,0.1731,0.1877,0.2018,0.2082,0.2135,0.223,0.2291,0.2332,0.2336,0.2437,0.2396,0.2403,0.2327,0.2288,0.2268,0.227,0.23,0.2302,0.2303,0.2304,0,0.1325,0.1326,0.1378,0.1413,0.1475,0.1485,0.1549,0.1609,0.168,0.188,0.1902,0.2061,0.221,0.221,0.2246,0.2243,0.2196,0.2102,0.2124,0.2141,0.2044,0.1964,0.1866,0,0,0,0,0,0.1264,0.1246,0.1267,0.1282,0.1337,0.1377,0.148,0.1551,0.1708,0.1704,0.1795,0.1874,0.1938,0.2025,0.1982,0.2144,0.2197,0.2081,0.2097,0.222,0.2237,0.2139,0,0,0,0,0,0,0.1216,0.1229,0.1222,0.1168,0.1162,0.1203,0.1269,0.1377,0.1383,0.156,0.1615,0.1746,0.1847,0.1947,0.1944,0.1966,0.1932,0.2184,0.2178,0.2211,0.2226,0.2239,0.2145,0,0,0,0,0]},{"header":{"parameterUnit":"m.s-1","parameterCategory":2,"la1":30.2991,"la2":30.254,"lo1":-89.0895,"lo2":-89.0444,"dy":0.0017,"dx":0.0017,"nx":28,"ny":28,"refTime":"2025-01-25T09:00:00:Z","depth":"4","parameterNumber":3,"parameterNumberName":"V-component_of_CURRENTS"},"data":[0,0,0,0,0,0,0,0,0,0,0,0,0,0,0,0,0,0,0,0,0,0,0,0,0,0,0,0,0,0,0,0,0,0,0,0,0,0,0,0,0,0,0,0,0,0,0,0,0,0,0,0,0,0,0,0,0,0,0.0088,0.0088,0,0.0074,0.0074,0.0074,0.0056,0.0055,0.0055,0.0055,0.0027,0.0026,0.0026,0,0,0,0,0,0,0,0,0,0,0,0,0,0.0075,0.0076,0.0088,0.0088,0.0088,0.0074,0.0074,0.0074,0.0056,0.0055,0.0055,0.0055,0.0027,0.0026,0.0026,0,0,0,0,0,0,0,0,0,0,0,0,0,0.0073,0.0076,0.0088,0.0077,0.0076,0.0074,0.0074,0.0074,0.0056,0.0055,0.0055,0.0054,0.0027,0.0026,0.0026,0.003,0,0,0.0023,0.0023,0,0,0,0,0,0,0,0,0.0073,0.0074,0.0079,0.0078,0.0076,0.0066,0.0059,0.0059,0.0056,0.0063,0.0055,0.0054,0.0039,0.0037,0.0036,0.0029,0.0028,0.0023,0.0023,0.0023,0.0022,0,0,0,0,0,0,0,0.0074,0.0074,0.0083,0.0079,0.0077,0.0065,0.0064,0.0059,0.0054,0.0063,0.0061,0.006,0.0038,0.0037,0.0035,0.0027,0.0023,0.0023,0.0022,0.0022,0.0016,0.0016,0,0,0,0,0,0,0.0077,0.0074,0.0083,0.0082,0.0074,0.0065,0.0065,0.007,0.0054,0.0051,0.006,0.0059,0.0038,0.0036,0.0034,0.0043,0.0023,0.0022,0.0022,0.0016,0.0016,0.0016,0,0,0,0,0,0,0.0077,0.0078,0.0084,0.0077,0.0077,0.0066,0.0072,0.007,0.0068,0.0052,0.0049,0.006,0.0037,0.0035,0.0033,0.0042,0.0022,0.0021,0.0015,0.0016,0.0016,0.0059,0,0,0,0,0,0,0.0077,0.0079,0.0083,0.0078,0.0078,0.0091,0.0072,0.007,0.0068,0.0066,0.0051,0.0048,0.0037,0.0034,0.0032,0.004,0.002,0.0015,0.0015,0.0016,0.0057,0.0061,0.0064,0,0,0,0,0,0.0077,0.0092,0.0084,0.0085,0.0085,0.0092,0.0091,0.0081,0.0068,0.0075,0.0061,0.0049,0.0035,0.0034,0.0031,0.004,0.0015,0.0015,0.0016,0.0056,0.006,0.0064,0,0,0,0,0,0,0.009,0.0091,0.0083,0.0097,0.0096,0.0089,0.0094,0.0084,0.0078,0.0075,0.0055,0.0052,0.0051,0.004,0.0038,0.0038,0.0022,0.0022,0.0053,0.0057,0.006,0.0073,0.002,0,0,0,0,0,0.0095,0.0105,0.0101,0.0112,0.0113,0.0102,0.0102,0.0096,0.009,0.0087,0.0075,0.0062,0.0053,0.005,0.0041,0.0045,0.002,0.0047,0.005,0.0053,0.0061,0.0026,0.0027,0.0018,0.0018,0.0018,0,0,0.0102,0.0104,0.0109,0.0115,0.0112,0.0125,0.0102,0.0108,0.0116,0.0085,0.0093,0.0074,0.0055,0.0058,0.0057,0.005,0.0042,0.0054,0.0057,0.0063,0.0027,0.0028,0.0028,0.0018,0.0018,0.0018,0,0,0.0127,0.0125,0.0143,0.0146,0.0147,0.0142,0.0145,0.014,0.0137,0.0141,0.0117,0.0104,0.0095,0.0083,0.0075,0.0091,0.0059,0.0087,0.0117,0.0083,0.0083,0.0084,0.005,0.0046,0.009,0.009,0.009,0,0.0135,0.0157,0.0149,0.0167,0.0175,0.0153,0.0175,0.017,0.0165,0.0166,0.015,0.0126,0.0108,0.0106,0.0111,0.0099,0.0074,0.0105,0.0087,0.0087,0.0086,0.0052,0.0047,0.0093,0.0092,0.0092,0.0092,0,0.0174,0.019,0.0202,0.0217,0.0226,0.0241,0.0236,0.0238,0.0225,0.0217,0.021,0.0179,0.0166,0.0154,0.0138,0.0129,0.0111,0.0094,0.0079,0.009,0.0052,0.0047,0.0096,0.0095,0.0094,0.0094,0,0,0.0197,0.0224,0.0228,0.0247,0.0255,0.027,0.0283,0.0292,0.0306,0.0279,0.0289,0.0258,0.0233,0.0222,0.0193,0.0162,0.0131,0.0132,0.0129,0.0102,0.0054,0.0032,0.0024,0.011,0.0109,0.0109,0.0029,0,0.0229,0.0276,0.028,0.0324,0.0348,0.034,0.036,0.0363,0.0355,0.0357,0.0309,0.0307,0.0261,0.0257,0.0217,0.0157,0.012,0.0154,0.0046,0.0043,0.0023,0.0018,0.0107,0.0025,0.0024,0.0023,0.0022,0,0.0266,0.0294,0.0344,0.0386,0.0397,0.042,0.0451,0.0469,0.0459,0.0452,0.0426,0.0387,0.0343,0.03,0.0193,0.0216,0.0143,0.0086,0.0081,0.0044,0.0011,0.0011,0.0012,0.0013,0.0014,0.0015,0.0015,0,0.0291,0.034,0.0384,0.0397,0.0438,0.0463,0.0488,0.0499,0.053,0.0515,0.0523,0.0453,0.0428,0.0324,0.0199,0.0198,0.0071,0.0053,-0.004,-0.0043,-0.0017,-0.0016,-0.0026,-0.0026,-0.0026,-0.0026,-0.0026,0,0.0323,0.036,0.0402,0.0428,0.0492,0.0508,0.0575,0.0582,0.0609,0.0647,0.0579,0.0575,0.0433,0.034,0.0218,0.0071,0.008,-0.0035,-0.0065,0.0002,0.0006,-0.0021,-0.002,-0.0029,-0.0028,-0.0028,-0.0027,0,0.0343,0.0367,0.0426,0.0482,0.0506,0.0557,0.0646,0.0695,0.0704,0.0748,0.0747,0.0671,0.0544,0.0386,0.0214,0.0107,-0.0037,-0.0092,-0.0008,-0.0032,-0.0132,-0.0127,-0.0197,-0.0199,-0.02,-0.0201,-0.0202,0,0.0356,0.0386,0.0468,0.0518,0.0548,0.063,0.0693,0.074,0.0796,0.0802,0.0822,0.0717,0.0639,0.0384,0.0208,-0.0035,-0.0072,-0.0146,-0.0142,-0.0127,-0.015,-0.0143,-0.0136,-0.0204,-0.0204,-0.0205,-0.0205,0,0.0382,0.0411,0.0464,0.0564,0.064,0.0735,0.0824,0.0868,0.0917,0.092,0.0885,0.0746,0.0598,0.0389,0.0195,0.0021,-0.0098,-0.016,-0.0158,-0.0155,-0.0136,-0.0155,-0.0148,-0.0209,-0.0209,-0.0208,-0.0208,0,0.0404,0.0445,0.0518,0.0609,0.0707,0.0807,0.0856,0.0917,0.0966,0.0963,0.0945,0.0776,0.0683,0.0416,0.0239,0.0061,0.0016,-0.0039,-0.0044,-0.0042,0.0019,0.0066,0.0032,0,0,0,0,0,0.0426,0.0476,0.0561,0.0662,0.0762,0.0825,0.0929,0.0972,0.1005,0.0992,0.0974,0.083,0.0562,0.0448,0.0268,0.0203,-0.0024,-0.0017,-0.009,-0.0233,-0.0228,-0.0186,0,0,0,0,0,0,0.044,0.0516,0.056,0.0689,0.0765,0.0884,0.0954,0.0984,0.0982,0.0978,0.0843,0.0774,0.0519,0.066,0.0258,0.0204,0.0131,-0.014,-0.0144,-0.0236,-0.0231,-0.0227,-0.0182,0,0,0,0,0]}]]